Probability
35 34 31 29 28 28 26 22 18 17 20 24 27 29 28 26 22 18 16 16 17 17 16 16 21 23 19 16 14 14 17 21 25 25 20 16 17 22 24 23 22 22 24
38 36 31 27 25 24 22 17 13 11 14 18 22 24 25 24 19 15 14 14 15 15 13 13 16 17 15 13 13 14 15 19 25 26 22 16 15 18 20 21 20 21 23
43 38 31 25 21 18 15 11 8 6 7 11 15 16 18 18 15 12 11 11 11 11 11 11 12 12 11 11 12 12 11 14 21 25 22 17 14 15 16 17 18 19 20
46 40 30 23 18 14 10 8 7 6 6 8 11 12 12 11 10 9 8 7 6 7 8 9 10 10 9 10 11 11 10 12 15 19 19 17 15 14 12 11 13 14 14
47 42 31 22 16 11 7 6 6 6 7 9 11 10 8 7 6 5 4 3 4 4 5 5 7 8 9 10 11 12 12 12 12 12 13 13 14 15 11 6 7 9 9
48 42 30 21 15 10 6 5 4 5 6 8 8 7 6 4 2 1 1 1 1 2 3 3 5 7 8 9 10 11 12 11 10 9 9 10 12 13 9 4 4 6 7
45 38 27 20 15 10 7 5 3 4 5 6 6 6 4 2 1 0 0 0 0 1 2 2 4 5 6 7 8 9 10 9 7 7 6 7 9 9 8 5 4 5 6
41 33 25 19 15 11 8 5 4 4 3 4 5 5 3 1 0 0 0 0 0 0 0 1 2 2 3 4 5 6 6 5 4 4 3 3 4 5 6 6 4 4 4
35 30 24 19 14 10 7 5 4 3 2 2 3 3 2 0 0 0 0 0 0 0 0 0 0 0 1 1 1 2 2 2 1 1 1 1 1 2 4 4 3 2 2
31 28 23 18 13 9 7 5 3 2 1 0 1 1 0 0 0 0 0 0 0 0 0 0 0 0 0 0 0 0 0 0 0 0 0 0 0 1 1 1 1 1 2
30 26 21 18 13 9 6 4 2 0 0 0 0 0 0 0 0 0 0 0 0 0 0 0 0 0 0 0 0 0 0 0 0 0 0 0 0 0 0 0 0 1 3
26 23 18 15 11 7 4 3 1 0 0 0 0 0 0 0 0 0 0 0 0 0 0 0 0 0 0 0 0 0 0 0 0 0 0 0 0 0 0 0 0 1 3
18 16 13 11 8 5 2 1 0 0 0 0 0 0 0 0 0 0 0 0 0 0 0 0 0 0 0 0 0 0 0 0 0 0 0 0 0 0 0 0 0 1 2
13 11 9 8 6 4 2 1 1 0 0 0 0 0 0 0 0 0 0 0 0 0 0 0 0 0 0 0 0 0 0 0 0 0 0 0 0 0 0 0 0 0 0
7 7 7 7 6 4 2 2 2 1 0 0 0 0 0 0 0 0 0 0 0 0 0 0 0 0 0 0 0 0 0 0 0 0 0 0 0 0 0 0 0 0 0
2 3 4 5 3 2 2 2 2 1 0 0 0 0 0 0 0 0 0 0 0 0 0 0 0 0 0 0 0 0 0 0 0 0 0 0 0 0 0 0 0 0 0
0 0 1 1 1 1 1 1 1 0 0 0 0 0 0 0 0 0 0 0 0 0 0 0 0 0 0 0 0 0 0 0 0 0 0 0 0 0 0 0 0 0 0
0 0 0 0 0 1 0 0 0 0 0 0 0 0 0 0 0 0 0 0 0 0 0 0 0 0 0 0 0 0 0 0 0 0 0 0 0 0 0 0 0 0 0
1 0 0 0 0 0 0 0 0 0 0 0 0 0 0 0 0 0 0 0 0 0 0 0 0 0 0 0 0 0 0 0 0 0 0 0 0 0 0 0 0 0 0
1 0 0 0 0 0 0 0 0 0 0 0 0 0 0 0 0 0 0 0 0 0 0 0 0 0 0 0 0 0 0 0 0 0 0 0 0 0 0 0 0 0 0
1 0 0 0 0 0 0 0 0 0 0 0 0 0 0 0 0 0 0 0 0 0 0 0 0 0 0 0 0 0 0 0 0 0 0 0 0 0 0 0 0 0 0
0 0 0 0 0 0 0 0 0 0 0 0 0 0 0 0 0 0 0 0 0 0 0 0 0 0 0 0 0 0 0 0 0 0 0 0 0 0 0 0 0 0 0
0 0 0 0 0 0 0 0 0 0 0 0 0 0 0 0 0 0 0 0 0 0 0 0 0 0 0 0 0 0 0 0 0 0 0 0 0 0 0 0 0 0 0
0 0 0 0 0 0 0 0 0 0 0 0 0 0 0 0 0 0 0 0 0 0 0 0 0 0 0 0 0 0 0 0 0 0 0 0 0 0 0 0 0 0 0
0 0 0 0 0 0 0 0 0 0 0 0 0 0 0 0 0 0 0 0 0 0 0 0 0 0 0 0 0 0 0 0 0 0 0 0 0 0 0 0 0 0 0
0 0 0 0 0 0 0 0 0 0 0 0 0 0 0 0 0 0 0 0 0 0 0 0 0 0 0 0 0 0 0 0 0 0 0 0 0 0 0 0 0 0 0
Wind_Speed
12 11 10 9 8 7 6 5 5 4 2 1 1 1 1 1 2 2 2 2 2 3 2 2 1 1 1 1 2 2 2 2 2 2 2 3 3 3 2 2 1 1 1
13 11 10 9 8 7 6 5 4 4 3 2 1 1 1 1 2 1 2 2 3 3 2 2 2 2 1 1 2 2 2 3 2 2 2 2 2 2 2 2 2 1 0
14 12 11 9 8 7 6 5 5 4 4 3 2 2 1 1 1 2 2 2 3 3 3 4 3 3 2 2 2 2 2 3 3 2 2 1 2 0 1 1 1 2 1
14 13 11 10 9 8 7 6 5 4 4 3 3 2 1 1 1 1 1 1 2 2 3 3 3 3 2 3 3 3 3 3 3 2 2 2 1 1 1 0 1 2 1
14 13 12 10 9 9 7 6 5 5 4 4 4 3 3 2 2 1 1 1 1 3 4 4 4 3 3 3 3 3 3 3 2 2 2 2 2 2 2 2 1 1 1
14 14 12 11 9 8 8 7 6 5 5 5 5 5 5 4 3 3 2 1 2 2 4 4 4 3 3 3 3 3 3 3 3 3 2 2 2 1 2 2 2 1 0
14 14 13 11 9 8 8 7 6 5 5 5 5 5 4 3 4 3 3 3 3 3 4 4 4 3 3 3 3 3 2 3 3 3 3 3 2 2 1 1 1 1 0
13 13 12 10 9 9 8 8 6 6 5 5 4 4 4 3 3 4 3 3 3 3 3 3 3 4 4 4 3 3 2 2 3 3 3 3 2 2 2 1 1 1 1
12 12 11 9 9 8 7 7 6 5 5 4 4 4 4 4 4 3 4 3 3 3 4 4 4 4 4 4 4 2 3 3 3 3 3 3 2 2 2 2 2 3 2
11 12 10 9 8 7 7 7 6 5 5 4 3 4 4 4 4 4 4 4 4 4 3 3 3 3 4 4 4 3 3 3 3 2 3 3 2 2 2 2 2 2 2
11 10 9 9 8 7 7 6 5 5 4 4 4 4 4 4 4 3 4 4 4 3 4 4 4 4 4 4 4 4 4 4 3 3 3 3 2 2 1 1 1 1 1
9 9 8 8 7 6 5 5 4 4 3 3 4 4 4 4 4 4 4 3 3 3 4 4 4 5 5 4 4 4 4 4 4 4 3 3 2 2 1 1 1 1 2
8 8 7 6 5 5 4 4 3 3 3 3 4 4 4 4 4 3 3 3 3 3 4 4 4 4 4 5 5 5 4 4 5 5 4 4 3 2 1 1 1 1 3
6 7 6 5 5 4 4 3 2 2 3 4 4 4 4 3 3 3 3 3 3 4 4 4 4 4 6 7 7 6 5 4 4 5 5 5 4 3 1 2 2 3 4
6 7 6 5 4 4 3 3 3 2 3 4 4 3 3 3 3 3 3 3 4 4 4 4 5 5 6 8 8 7 6 5 4 5 5 5 5 5 3 2 3 3 4
6 6 5 4 4 4 3 3 2 3 3 3 3 2 3 3 2 2 3 3 4 4 4 5 6 7 7 9 11 8 6 5 4 4 3 4 5 7 7 6 4 3 4
6 6 5 4 3 4 3 3 3 3 3 3 3 3 3 3 2 3 3 3 3 4 4 4 5 5 7 10 11 11 5 4 5 4 4 4 5 5 4 5 6 4 4
6 6 5 4 3 4 4 3 3 3 3 3 3 3 3 3 3 3 3 3 3 3 3 3 4 4 7 10 11 11 4 4 5 5 5 5 5 6 4 3 4 4 4
6 5 5 5 4 4 4 4 3 3 3 3 3 3 3 2 2 2 2 2 2 2 3 3 3 4 5 9 11 10 3 3 5 6 6 6 5 7 6 4 5 5 4
6 5 5 5 5 4 4 4 3 3 4 3 3 3 2 2 2 2 2 2 1 2 2 3 4 4 5 8 11 10 3 3 3 4 5 9 8 8 7 4 4 4 3
6 6 5 5 4 4 4 4 4 3 3 3 3 2 2 2 2 2 1 1 1 2 2 3 3 4 4 6 10 10 5 3 3 3 4 4 8 8 7 5 4 4 2
6 5 5 5 4 3 4 4 4 3 3 3 3 2 2 1 2 1 1 1 1 1 1 1 2 2 3 5 6 9 8 6 4 4 3 3 6 7 7 5 4 4 2
6 5 5 5 4 4 3 4 3 3 3 3 2 2 2 2 1 0 0 0 0 0 0 1 1 1 2 2 4 5 7 7 4 3 3 3 4 4 2 2 2 2 1
6 5 5 5 5 4 3 3 3 3 3 3 2 1 1 2 1 1 1 2 3 2 2 2 1 1 2 3 3 2 2 2 2 1 1 1 2 2 1 0 0 0 1
5 5 4 4 5 5 3 3 3 3 3 2 1 1 1 2 2 3 4 4 5 4 3 4 4 3 3 4 5 4 4 4 4 4 1 1 1 1 0 0 0 1 1
6 5 4 4 4 4 4 3 3 3 3 2 1 1 1 1 1 2 3 5 4 4 4 4 3 3 3 2 5 6 7 7 7 4 2 1 1 0 1 1 1 1 1
Wind_Direction
130 126 121 116 109 102 96 85 72 62 47 47 59 104 103 103 93 84 60 23 342 333 318 315 290 289 268 271 281 270 259 239 230 243 264 254 233 228 228 226 203 166 183
138 135 131 123 116 107 96 87 74 58 42 37 26 53 71 92 112 83 55 21 354 350 343 336 336 334 316 295 270 274 265 252 224 217 233 241 243 237 221 191 172 177 141
148 145 138 131 124 115 104 89 69 52 39 27 38 52 72 66 84 82 63 26 11 12 6 1 2 352 345 320 304 291 277 275 259 223 223 229 228 220 217 183 146 126 117
148 147 142 137 130 121 108 94 82 64 47 44 49 52 72 66 51 55 82 43 30 24 28 10 4 349 343 334 323 330 303 285 281 273 248 253 245 204 224 176 112 108 95
149 145 140 133 124 117 111 103 90 73 56 55 59 48 58 59 61 53 82 64 66 48 37 18 9 358 357 353 344 335 324 308 304 297 292 268 260 228 216 228 188 102 71
142 136 131 125 122 120 115 107 97 81 67 61 58 55 59 55 46 31 26 28 55 57 41 23 10 2 0 352 346 332 329 323 319 307 296 285 265 257 235 223 205 171 93
138 136 135 132 130 125 119 114 109 96 83 72 63 58 56 57 51 29 29 29 38 44 31 20 4 359 351 339 342 329 330 328 317 302 296 293 285 293 273 226 224 220 208
136 134 135 133 132 127 122 114 107 97 88 80 68 57 49 50 50 30 22 33 34 38 24 8 2 -0 354 351 345 334 336 336 318 307 299 286 283 285 278 245 211 218 217
127 130 132 131 125 119 114 114 111 106 99 92 86 77 65 55 47 35 30 30 20 27 19 3 6 11 2 353 344 353 354 347 334 321 318 308 292 287 273 258 219 199 204
125 131 132 128 123 120 115 113 113 107 98 93 84 84 73 63 50 42 39 28 19 17 5 6 5 11 6 4 357 355 353 346 331 316 319 312 311 297 276 260 252 231 193
128 131 129 125 125 123 121 118 111 108 104 95 85 82 77 68 57 44 37 28 15 7 11 6 10 11 11 8 2 357 353 356 348 332 317 310 305 300 298 286 254 199 155
122 124 124 125 128 127 120 114 113 113 108 103 98 86 74 66 55 46 35 27 18 16 20 17 17 12 15 7 6 4 6 3 360 353 347 336 332 342 329 350 31 101 137
113 118 119 123 125 123 118 115 116 114 112 104 95 85 73 65 54 42 31 21 23 25 23 22 20 14 12 13 8 4 7 15 12 9 7 359 353 6 17 49 78 94 110
109 118 117 115 117 115 113 111 103 101 104 96 96 90 78 70 55 42 30 26 31 32 31 26 18 23 27 19 9 2 6 25 29 26 21 13 10 13 38 80 99 110 112
111 113 114 114 111 114 116 116 111 91 89 92 97 93 86 77 61 46 35 30 32 36 29 27 29 31 41 20 5 356 10 22 35 40 38 36 41 42 45 83 103 121 129
122 116 111 113 121 133 136 131 117 103 96 91 88 85 86 77 63 51 47 39 38 33 32 31 41 39 31 8 7 3 1 12 27 35 45 54 56 60 65 84 96 112 135
127 122 121 116 123 134 131 121 109 100 98 97 96 88 82 71 56 52 50 43 40 38 36 38 46 50 27 11 7 3 359 23 27 21 23 50 54 55 70 86 94 95 95
122 124 125 121 123 127 126 125 118 113 112 106 98 89 78 69 54 50 49 47 36 32 42 50 52 51 32 13 6 357 13 35 38 36 39 52 46 39 41 94 94 88 73
123 125 131 130 127 126 124 124 121 118 108 100 95 89 84 72 62 61 51 48 45 39 51 58 54 51 37 16 9 2 14 46 46 44 39 47 50 33 43 77 92 92 85
117 120 126 122 120 119 119 123 117 108 104 100 89 80 74 75 75 62 52 53 45 46 59 60 53 49 46 25 19 5 14 52 66 68 58 47 40 38 49 69 82 92 98
113 119 123 121 122 124 125 124 120 117 110 113 114 105 82 81 87 70 58 57 59 56 62 60 62 56 47 43 30 21 16 14 49 65 60 40 33 41 53 65 69 78 75
121 124 124 122 125 124 122 119 121 128 118 111 109 104 92 92 96 97 53 53 75 85 93 82 82 72 54 38 28 25 26 24 40 54 62 51 39 40 42 54 52 46 48
127 128 128 122 123 128 128 122 122 116 110 110 112 107 90 80 79 68 90 30 142 306 115 106 88 93 90 61 27 24 30 36 45 52 58 49 32 14 11 38 25 28 46
130 135 134 135 134 133 133 127 125 113 113 119 113 103 103 107 66 1 16 31 24 20 23 36 28 53 62 43 17 2 38 35 52 63 66 1 341 318 323 341 269 182 94
130 137 136 133 133 137 138 131 126 129 128 124 126 133 111 96 80 62 39 44 53 45 28 18 14 24 53 24 8 9 13 9 11 336 288 256 229 220 181 154 155 131 131
136 138 137 133 132 137 134 132 133 132 135 145 160 151 120 128 148 134 107 62 79 91 73 56 39 50 68 37 13 12 4 3 359 345 307 299 303 189 154 154 145 128 97